Change the Weather History Date:

Monday, January 27, 2014

  Actual Average (KTHA) Record (KTHA)
Temperature  
Mean Temperature 32 °F -  
Max Temperature 50 °F 48 °F 48 °F (2013)
Min Temperature 15 °F 27 °F 14 °F (2014)
Degree Days  
Heating Degree Days 32    
Moisture  
Dew Point 14 °F    
Average Humidity 46    
Maximum Humidity 75    
Minimum Humidity 25    
Precipitation  
Precipitation 0.00 in - - ()
Sea Level Pressure  
Sea Level Pressure 30.07 in    
Wind  
Wind Speed 9 mph (NNW)    
Max Wind Speed 22 mph    
Max Gust Speed 29 mph    
Visibility 10 miles    
Events      
Averages and records for this station are not official NWS values.
T = Trace of Precipitation, MM = Missing Value Source: NWS Daily Summary

Daily Weather History Graph

Daily Weather History Graph

Search for Another Location

Airport or City:

Trip Planner

Search our weather history database for the weather conditions in past years. The results will help you decide how hot, cold, wet, or windy it might be!

Date:

Astronomy

Jan. 27, 2014 Rise Set
Actual Time 7:46 AM EST 6:07 PM EST
Civil Twilight 7:19 AM EST 6:34 PM EST
Nautical Twilight 6:49 AM EST 7:05 PM EST
Astronomical Twilight 6:19 AM EST 7:35 PM EST
Moon 4:25 AM EST 2:54 PM EST
Length of Visible Light 11h 14m
Length of Day
10h 20m
Waning Crescent, 15% of the Moon is Illuminated
Jan 27
Waning Crescent
Jan 30
New
Feb 6
First Quarter
Feb 14
Full
Feb 22
Last Quarter

Hourly Weather History & Observations

Time (EST) Temp. Windchill Dew Point Humidity Pressure Visibility Wind Dir Wind Speed Gust Speed Precip Events Conditions
12:35 AM 48.2 °F - 28.4 °F 46% 29.82 in 10.0 mi South 6.9 mph - N/A   Scattered Clouds
12:55 AM 48.2 °F - 28.4 °F 46% 29.81 in 10.0 mi South 9.2 mph - N/A   Scattered Clouds
1:15 AM 48.2 °F - 28.4 °F 46% 29.81 in 10.0 mi South 8.1 mph - N/A   Mostly Cloudy
1:35 AM 50.0 °F - 28.4 °F 43% 29.82 in 10.0 mi SW 4.6 mph - N/A   Mostly Cloudy
1:55 AM 50.0 °F - 28.4 °F 43% 29.85 in 10.0 mi WSW 4.6 mph - N/A   Mostly Cloudy
2:15 AM 50.0 °F - 28.4 °F 43% 29.84 in 10.0 mi SSW 3.5 mph - N/A   Overcast
2:35 AM 50.0 °F - 30.2 °F 47% 29.84 in 10.0 mi SSW 5.8 mph - N/A   Overcast
2:55 AM 50.0 °F - 30.2 °F 47% 29.84 in 10.0 mi SSW 5.8 mph - N/A   Overcast
3:15 AM 50.0 °F - 30.2 °F 47% 29.84 in 10.0 mi SW 8.1 mph - N/A   Overcast
3:35 AM 50.0 °F - 30.2 °F 47% 29.85 in 10.0 mi WSW 5.8 mph - N/A   Overcast
3:55 AM 50.0 °F - 30.2 °F 47% 29.86 in 10.0 mi WSW 5.8 mph - N/A   Overcast
4:15 AM 50.0 °F - 30.2 °F 47% 29.87 in 10.0 mi West 3.5 mph - N/A   Overcast
4:35 AM 50.0 °F - 30.2 °F 47% 29.87 in 10.0 mi WSW 6.9 mph - N/A   Overcast
4:55 AM 48.2 °F - 30.2 °F 50% 29.87 in 10.0 mi WSW 5.8 mph - N/A   Overcast
5:15 AM 48.2 °F - 30.2 °F 50% 29.87 in 10.0 mi WSW 4.6 mph - N/A   Overcast
5:35 AM 46.4 °F 44.3 °F 30.2 °F 53% 29.87 in 10.0 mi West 4.6 mph - N/A   Partly Cloudy
5:55 AM 46.4 °F 44.3 °F 30.2 °F 53% 29.88 in 10.0 mi West 4.6 mph - N/A   Clear
6:15 AM 46.4 °F 45.2 °F 30.2 °F 53% 29.88 in 10.0 mi West 3.5 mph - N/A   Clear
6:35 AM 44.6 °F 42.2 °F 30.2 °F 57% 29.89 in 10.0 mi West 4.6 mph - N/A   Partly Cloudy
6:55 AM 44.6 °F 42.2 °F 30.2 °F 57% 29.90 in 10.0 mi NW 4.6 mph - N/A   Mostly Cloudy
7:15 AM 44.6 °F 36.1 °F 32.0 °F 61% 29.94 in 10.0 mi North 21.9 mph 28.8 mph N/A   Mostly Cloudy
7:35 AM 37.4 °F 27.5 °F 28.4 °F 70% 29.97 in 10.0 mi North 18.4 mph - N/A   Scattered Clouds
7:55 AM 33.8 °F 24.8 °F 26.6 °F 75% 30.00 in 10.0 mi North 12.7 mph - N/A   Mostly Cloudy
8:15 AM 33.8 °F 25.3 °F 24.8 °F 70% 30.01 in 10.0 mi North 11.5 mph - N/A   Overcast
8:35 AM 32.0 °F 23.0 °F 23.0 °F 69% 30.02 in 10.0 mi North 11.5 mph - N/A   Overcast
8:55 AM 32.0 °F 21.6 °F 23.0 °F 69% 30.05 in 10.0 mi North 15.0 mph - N/A   Overcast
9:15 AM 30.2 °F 23.4 °F 21.2 °F 69% 30.06 in 10.0 mi NNW 6.9 mph - N/A   Overcast
9:35 AM 30.2 °F 20.8 °F 19.4 °F 64% 30.08 in 10.0 mi North 11.5 mph - N/A   Overcast
9:55 AM 30.2 °F 21.3 °F 17.6 °F 60% 30.10 in 10.0 mi North 10.4 mph - N/A   Overcast
10:15 AM 30.2 °F 20.2 °F 17.6 °F 60% 30.10 in 10.0 mi North 12.7 mph - N/A   Scattered Clouds
10:35 AM 32.0 °F 22.5 °F 17.6 °F 55% 30.10 in 10.0 mi NNW 12.7 mph - N/A   Clear
10:55 AM 32.0 °F 22.1 °F 17.6 °F 55% 30.11 in 10.0 mi North 13.8 mph - N/A   Clear
11:15 AM 33.8 °F 24.8 °F 17.6 °F 52% 30.12 in 10.0 mi NNE 12.7 mph - N/A   Clear
11:35 AM 33.8 °F 24.8 °F 15.8 °F 48% 30.12 in 10.0 mi North 12.7 mph - N/A   Clear
11:55 AM 33.8 °F 25.8 °F 12.2 °F 41% 30.13 in 10.0 mi NNW 10.4 mph - N/A   Clear
12:15 PM 33.8 °F 25.8 °F 10.4 °F 38% 30.13 in 10.0 mi NNW 10.4 mph - N/A   Clear
12:35 PM 33.8 °F 24.8 °F 10.4 °F 38% 30.12 in 10.0 mi NNE 12.7 mph - N/A   Clear
12:55 PM 33.8 °F 24.3 °F 10.4 °F 38% 30.11 in 10.0 mi NNW 13.8 mph - N/A   Clear
1:15 PM 33.8 °F 24.8 °F 10.4 °F 38% 30.10 in 10.0 mi North 12.7 mph - N/A   Clear
1:35 PM 33.8 °F 25.8 °F 6.8 °F 32% 30.10 in 10.0 mi North 10.4 mph - N/A   Clear
1:55 PM 33.8 °F 25.3 °F 6.8 °F 32% 30.10 in 10.0 mi NE 11.5 mph - N/A   Clear
2:15 PM 33.8 °F 24.3 °F 8.6 °F 35% 30.10 in 10.0 mi North 13.8 mph - N/A   Clear
2:35 PM 33.8 °F 23.9 °F 6.8 °F 32% 30.11 in 10.0 mi NNW 15.0 mph - N/A   Clear
2:55 PM 33.8 °F 24.8 °F 8.6 °F 35% 30.11 in 10.0 mi North 12.7 mph - N/A   Clear
3:15 PM 33.8 °F 24.8 °F 5.0 °F 30% 30.11 in 10.0 mi NNW 12.7 mph - N/A   Clear
3:35 PM 32.0 °F 23.0 °F 3.2 °F 30% 30.11 in 10.0 mi NNW 11.5 mph - N/A   Clear
3:55 PM 32.0 °F 23.0 °F 1.4 °F 27% 30.11 in 10.0 mi North 11.5 mph - N/A   Clear
4:15 PM 30.2 °F 21.3 °F -0.4 °F 27% 30.12 in 10.0 mi NNW 10.4 mph - N/A   Clear
4:35 PM 30.2 °F 20.2 °F -2.2 °F 25% 30.13 in 10.0 mi North 12.7 mph - N/A   Clear
4:55 PM 28.4 °F 18.5 °F -2.2 °F 27% 30.14 in 10.0 mi North 11.5 mph - N/A   Clear
5:15 PM 28.4 °F 18.5 °F -0.4 °F 29% 30.16 in 10.0 mi North 11.5 mph - N/A   Clear
5:35 PM 26.6 °F 16.2 °F -0.4 °F 31% 30.16 in 10.0 mi North 11.5 mph - N/A   Clear
5:55 PM 24.8 °F 14.6 °F -0.4 °F 34% 30.18 in 10.0 mi North 10.4 mph - N/A   Clear
6:15 PM 23.0 °F 11.7 °F -0.4 °F 36% 30.19 in 10.0 mi North 11.5 mph - N/A   Clear
6:35 PM 23.0 °F 11.1 °F -0.4 °F 36% 30.20 in 10.0 mi North 12.7 mph - N/A   Clear
6:55 PM 21.2 °F 10.1 °F -0.4 °F 39% 30.22 in 10.0 mi North 10.4 mph - N/A   Clear
7:15 PM 21.2 °F 10.9 °F -0.4 °F 39% 30.22 in 10.0 mi North 9.2 mph - N/A   Clear
7:35 PM 21.2 °F 10.1 °F -0.4 °F 39% 30.22 in 10.0 mi North 10.4 mph - N/A   Clear
7:55 PM 19.4 °F 5.5 °F -2.2 °F 39% 30.24 in 10.0 mi North 15.0 mph - N/A   Clear
8:15 PM 19.4 °F 7.9 °F -2.2 °F 39% 30.24 in 10.0 mi North 10.4 mph - N/A   Clear
8:35 PM 19.4 °F 6.0 °F -2.2 °F 39% 30.26 in 10.0 mi North 13.8 mph - N/A   Clear
8:55 PM 19.4 °F 7.9 °F -2.2 °F 39% 30.26 in 10.0 mi North 10.4 mph - N/A   Mostly Cloudy
9:15 PM 19.4 °F 6.0 °F -0.4 °F 42% 30.26 in 10.0 mi North 13.8 mph - N/A   Mostly Cloudy
9:35 PM 19.4 °F 7.9 °F 1.4 °F 46% 30.26 in 10.0 mi North 10.4 mph - N/A   Partly Cloudy
9:55 PM 17.6 °F 6.4 °F -0.4 °F 45% 30.27 in 10.0 mi North 9.2 mph - N/A   Clear
10:15 PM 17.6 °F 5.0 °F -0.4 °F 45% 30.27 in 10.0 mi North 11.5 mph - N/A   Clear
10:35 PM 17.6 °F 6.4 °F -0.4 °F 45% 30.28 in 10.0 mi North 9.2 mph - N/A   Clear
10:55 PM 17.6 °F 4.3 °F -0.4 °F 45% 30.28 in 10.0 mi North 12.7 mph - N/A   Clear
11:15 PM 15.8 °F 2.1 °F 1.4 °F 53% 30.28 in 10.0 mi North 12.7 mph - N/A   Clear
11:35 PM 15.8 °F 3.4 °F 1.4 °F 53% 30.28 in 10.0 mi North 10.4 mph - N/A   Partly Cloudy
11:55 PM 15.8 °F 3.4 °F 1.4 °F 53% 30.27 in 10.0 mi North 10.4 mph - N/A   Mostly Cloudy